Tracking 20623 objects as of 3-Apr-2020
HD Live streaming from Space Station
objects crossing your sky now

STARLINK-1088

Track STARLINK-1088 now!
10-day predictions
STARLINK-1088 is classified as:


NORAD ID: 44966
Int'l Code: 2020-001BE
Perigee: 385.9 km
Apogee: 387.8 km
Inclination: 53.0 °
Period: 92.1 minutes
Semi major axis: 6757 km
RCS: Unknown
Launch date: January 7, 2020
Source: United States (US)
Launch site: AIR FORCE EASTERN TEST RANGE (AFETR)
aabbcc
Your satellite tracking list
Your tracking list is empty




NASA's NSSDC Master Catalog

Two Line Element Set (TLE):
1 44966U 20001BE  20093.91667824 -.00016606 +00000-0 -17586-3 0  9990
2 44966 053.0005 326.4410 0001349 051.5175 109.3631 15.62755738001626
Source of the keplerian elements: AFSPC